When you browse on this site, cookies collect data to enhance your experience and personalize the content and advertising you see.
Visit our Privacy Policy to learn more. By continuing to use the site, you agree to this use of cookies and data.
  • In Austria
  • List of Countries
  • For 7 days
  • Water Temperature
  • Weather Map
  • News
  • Weather Widgets
  • user-avatar
    Login

    Hourly Weather Zorya

    Today, 22 September, Sunday

    Time Temperature Precipitation Wind Pressure Humidity
    00:00 +9°C° 0 mm 5 mps 753 mmHg 56%
    01:00 +9°C° 0 mm 6 mps 753 mmHg 64%
    02:00 +10°C° 0 mm 5 mps 752 mmHg 70%
    03:00 +10°C° 0 mm 6 mps 752 mmHg 72%
    04:00 +10°C° 0 mm 6 mps 752 mmHg 73%
    05:00 +11°C° 0 mm 7 mps 752 mmHg 75%
    06:00 +11°C° 0 mm 7 mps 752 mmHg 72%
    07:00 +12°C° 0 mm 7 mps 752 mmHg 69%
    08:00 +13°C° 0 mm 8 mps 752 mmHg 67%
    09:00 +15°C° 0 mm 8 mps 752 mmHg 64%
    10:00 +16°C° 0 mm 7 mps 752 mmHg 60%
    11:00 +17°C° 0 mm 7 mps 752 mmHg 57%
    12:00 +18°C° 0 mm 7 mps 751 mmHg 54%
    13:00 +20°C° 0 mm 7 mps 751 mmHg 52%
    14:00 +20°C° 0 mm 6 mps 751 mmHg 49%
    15:00 +20°C° 0 mm 6 mps 751 mmHg 49%
    16:00 +20°C° 0 mm 5 mps 750 mmHg 50%
    17:00 +20°C° 0 mm 4 mps 750 mmHg 50%
    18:00 +18°C° 0 mm 4 mps 750 mmHg 56%
    19:00 +17°C° 0 mm 3 mps 750 mmHg 62%
    20:00 +15°C° 0 mm 2 mps 750 mmHg 68%
    21:00 +14°C° 0 mm 2 mps 750 mmHg 70%
    22:00 +14°C° 0 mm 2 mps 750 mmHg 73%
    23:00 +12°C° 0 mm 3 mps 750 mmHg 75%

    Tomorrow, 23 September, Monday

    Time Temperature Precipitation Wind Pressure Humidity
    00:00 +12°C° 0 mm 3 mps 750 mmHg 77%
    01:00 +12°C° 0 mm 3 mps 750 mmHg 79%
    02:00 +12°C° 0 mm 3 mps 750 mmHg 80%
    03:00 +11°C° 0 mm 3 mps 750 mmHg 83%
    04:00 +11°C° 0 mm 3 mps 750 mmHg 86%
    05:00 +10°C° 0 mm 3 mps 750 mmHg 88%
    06:00 +11°C° 0 mm 3 mps 751 mmHg 85%
    07:00 +12°C° 0 mm 3 mps 751 mmHg 82%
    08:00 +13°C° 0 mm 3 mps 751 mmHg 79%
    09:00 +14°C° 0 mm 4 mps 752 mmHg 74%
    10:00 +14°C° 0 mm 4 mps 752 mmHg 70%
    11:00 +14°C° 0 mm 4 mps 752 mmHg 65%
    12:00 +15°C° 0 mm 4 mps 752 mmHg 61%
    13:00 +15°C° 0 mm 4 mps 752 mmHg 58%
    14:00 +15°C° 0 mm 4 mps 752 mmHg 54%
    15:00 +15°C° 0 mm 4 mps 752 mmHg 53%
    16:00 +15°C° 0 mm 4 mps 752 mmHg 53%
    17:00 +14°C° 0 mm 4 mps 752 mmHg 52%
    18:00 +13°C° 0 mm 3 mps 752 mmHg 53%
    19:00 +12°C° 0 mm 3 mps 752 mmHg 53%
    20:00 +10°C° 0 mm 3 mps 753 mmHg 54%
    21:00 +11°C° 0 mm 3 mps 753 mmHg 48%
    22:00 +11°C° 0 mm 4 mps 753 mmHg 43%
    23:00 +11°C° 0 mm 4 mps 753 mmHg 37%

    Day after tomorrow, 24 September, Tuesday

    Time Temperature Precipitation Wind Pressure Humidity
    00:00 +10°C° 0.1 mm 4 mps 753 mmHg 39%
    01:00 +10°C° 0.1 mm 3 mps 753 mmHg 41%
    02:00 +9°C° 0.1 mm 3 mps 753 mmHg 43%
    03:00 +8°C° 0.1 mm 3 mps 753 mmHg 45%
    04:00 +8°C° 0.1 mm 3 mps 753 mmHg 48%
    05:00 +7°C° 0.1 mm 3 mps 753 mmHg 50%
    06:00 +8°C° 0 mm 3 mps 753 mmHg 49%
    07:00 +9°C° 0 mm 3 mps 753 mmHg 47%
    08:00 +10°C° 0 mm 4 mps 753 mmHg 45%
    09:00 +12°C° 0 mm 4 mps 753 mmHg 42%
    10:00 +14°C° 0 mm 4 mps 753 mmHg 39%
    11:00 +17°C° 0 mm 3 mps 753 mmHg 36%
    12:00 +17°C° 0 mm 3 mps 752 mmHg 35%
    13:00 +18°C° 0 mm 3 mps 752 mmHg 35%
    14:00 +19°C° 0 mm 2 mps 752 mmHg 35%
    15:00 +18°C° 0 mm 2 mps 751 mmHg 36%
    16:00 +18°C° 0 mm 2 mps 751 mmHg 37%
    17:00 +17°C° 0 mm 2 mps 751 mmHg 38%
    18:00 +16°C° 0 mm 2 mps 751 mmHg 38%
    19:00 +13°C° 0 mm 3 mps 751 mmHg 37%
    20:00 +12°C° 0 mm 4 mps 751 mmHg 37%
    21:00 +12°C° 0 mm 4 mps 751 mmHg 34%
    22:00 +12°C° 0 mm 4 mps 751 mmHg 32%
    23:00 +13°C° 0 mm 4 mps 751 mmHg 29%

    25 September, Wednesday

    Time Temperature Precipitation Wind Pressure Humidity
    00:00 +12°C° 0 mm 4 mps 751 mmHg 30%
    01:00 +12°C° 0 mm 3 mps 751 mmHg 30%
    02:00 +12°C° 0 mm 3 mps 751 mmHg 30%
    03:00 +12°C° 0 mm 3 mps 751 mmHg 31%
    04:00 +12°C° 0 mm 3 mps 751 mmHg 32%
    05:00 +12°C° 0 mm 3 mps 751 mmHg 33%
    06:00 +12°C° 0 mm 3 mps 751 mmHg 34%
    07:00 +12°C° 0 mm 3 mps 751 mmHg 34%
    08:00 +13°C° 0 mm 3 mps 751 mmHg 35%
    09:00 +16°C° 0 mm 3 mps 751 mmHg 37%
    10:00 +18°C° 0 mm 3 mps 751 mmHg 38%
    11:00 +19°C° 0 mm 3 mps 751 mmHg 40%
    12:00 +20°C° 0 mm 3 mps 751 mmHg 39%
    13:00 +21°C° 0 mm 3 mps 750 mmHg 38%
    14:00 +23°C° 0 mm 2 mps 750 mmHg 38%
    15:00 +21°C° 0 mm 2 mps 750 mmHg 40%
    16:00 +21°C° 0 mm 2 mps 750 mmHg 42%
    17:00 +20°C° 0 mm 2 mps 749 mmHg 44%
    18:00 +19°C° 0 mm 3 mps 750 mmHg 43%
    19:00 +19°C° 0 mm 4 mps 750 mmHg 42%
    20:00 +18°C° 0 mm 4 mps 750 mmHg 41%
    21:00 +18°C° 0 mm 4 mps 750 mmHg 42%
    22:00 +17°C° 0 mm 4 mps 750 mmHg 42%
    23:00 +17°C° 0 mm 3 mps 750 mmHg 43%

    26 September, Thursday

    Time Temperature Precipitation Wind Pressure Humidity
    00:00 +16°C° 0 mm 3 mps 750 mmHg 49%
    01:00 +13°C° 0 mm 3 mps 750 mmHg 55%
    02:00 +12°C° 0 mm 3 mps 750 mmHg 61%
    03:00 +12°C° 0 mm 3 mps 750 mmHg 63%
    04:00 +12°C° 0 mm 3 mps 750 mmHg 65%
    05:00 +11°C° 0 mm 3 mps 750 mmHg 66%
    06:00 +12°C° 0 mm 4 mps 750 mmHg 58%
    07:00 +13°C° 0 mm 4 mps 750 mmHg 50%
    08:00 +14°C° 0 mm 5 mps 750 mmHg 41%
    09:00 +16°C° 0 mm 5 mps 750 mmHg 38%
    10:00 +17°C° 0 mm 5 mps 750 mmHg 34%
    11:00 +19°C° 0 mm 6 mps 750 mmHg 31%
    12:00 +19°C° 0 mm 5 mps 750 mmHg 32%
    13:00 +19°C° 0 mm 4 mps 749 mmHg 32%
    14:00 +19°C° 0 mm 3 mps 749 mmHg 33%
    15:00 +18°C° 0.1 mm 3 mps 749 mmHg 41%
    16:00 +16°C° 0.1 mm 3 mps 748 mmHg 50%
    17:00 +15°C° 0.1 mm 2 mps 748 mmHg 58%
    18:00 +15°C° 0.2 mm 2 mps 748 mmHg 61%
    19:00 +14°C° 0.2 mm 2 mps 748 mmHg 64%
    20:00 +14°C° 0.2 mm 2 mps 748 mmHg 66%
    21:00 +14°C° 0.1 mm 2 mps 748 mmHg 66%
    22:00 +14°C° 0.1 mm 2 mps 748 mmHg 66%
    23:00 +14°C° 0.1 mm 2 mps 748 mmHg 66%

    27 September, Friday

    Time Temperature Precipitation Wind Pressure Humidity
    00:00 +14°C° 0 mm 2 mps 748 mmHg 64%
    01:00 +14°C° 0 mm 2 mps 748 mmHg 62%
    02:00 +14°C° 0 mm 2 mps 748 mmHg 60%
    03:00 +14°C° 0 mm 1 mps 747 mmHg 59%
    04:00 +14°C° 0 mm 1 mps 747 mmHg 58%
    05:00 +13°C° 0 mm 1 mps 747 mmHg 57%
    06:00 +14°C° 0 mm 1 mps 747 mmHg 54%
    07:00 +15°C° 0 mm 1 mps 747 mmHg 50%
    08:00 +16°C° 0 mm 2 mps 747 mmHg 47%
    09:00 +17°C° 0 mm 2 mps 747 mmHg 49%
    10:00 +19°C° 0 mm 3 mps 748 mmHg 50%
    11:00 +20°C° 0 mm 3 mps 748 mmHg 52%
    12:00 +21°C° 0 mm 4 mps 748 mmHg 51%
    13:00 +21°C° 0 mm 4 mps 747 mmHg 50%
    14:00 +22°C° 0 mm 5 mps 747 mmHg 49%
    15:00 +21°C° 0.1 mm 5 mps 747 mmHg 53%
    16:00 +20°C° 0.1 mm 5 mps 747 mmHg 58%
    17:00 +19°C° 0.1 mm 6 mps 747 mmHg 62%
    18:00 +16°C° 0 mm 5 mps 748 mmHg 68%
    19:00 +15°C° 0 mm 4 mps 748 mmHg 75%
    20:00 +13°C° 0 mm 4 mps 749 mmHg 81%
    21:00 +13°C° 0 mm 3 mps 749 mmHg 83%
    22:00 +13°C° 0 mm 3 mps 749 mmHg 84%
    23:00 +12°C° 0 mm 3 mps 750 mmHg 85%
    Show more